Wind_Speed
22 23 23 21 21 23 25 26 25 24 23 21 20 18 17 16 16 16 17 17 18 18 18 18 18 18 18 18 19 19 20 20 20 21 21 21 21 21
19 19 20 21 22 23 24 26 27 27 26 25 23 22 20 19 18 18 18 18 18 18 18 18 18 18 18 18 18 19 19 20 20 21 21 21 22 22
18 18 18 19 21 22 25 27 28 29 29 28 27 25 23 22 21 20 20 20 20 19 19 19 19 20 20 20 19 20 20 20 21 21 21 21 21 22
17 16 17 18 20 21 23 27 29 30 30 30 30 29 27 25 23 22 22 21 21 21 21 21 21 21 21 21 21 21 21 21 21 21 21 21 22 22
17 17 17 17 18 19 21 24 27 29 31 32 33 32 31 29 27 25 24 24 23 22 22 22 22 22 22 22 22 21 21 21 21 21 21 22 22 22
18 18 18 18 19 19 19 21 25 28 30 32 34 34 34 33 31 29 28 27 26 24 24 24 24 24 24 23 23 23 23 23 23 23 23 23 23 23
20 19 19 18 19 20 20 21 23 26 28 31 33 34 34 34 34 34 32 30 28 28 28 28 26 26 26 26 25 25 25 25 25 25 25 25 25 25
21 20 20 20 20 20 21 21 22 24 25 28 31 33 34 34 35 36 35 32 31 32 31 30 30 30 29 29 28 28 28 27 27 27 27 27 27 27
22 22 22 21 20 20 21 21 21 22 24 25 27 30 32 34 35 35 35 34 34 35 34 33 33 33 33 32 31 31 31 30 30 30 30 30 30 30
21 21 22 22 21 21 21 21 21 22 24 26 27 27 29 32 34 35 36 35 35 34 34 35 35 34 34 33 33 33 33 33 33 32 32 32 32 32
21 21 22 22 22 22 22 22 22 22 22 23 25 27 27 29 31 33 34 34 34 35 35 35 36 36 35 35 35 34 35 35 35 35 35 34 34 34
22 22 23 23 23 23 23 22 22 22 22 22 24 25 26 27 29 30 32 33 34 35 36 35 36 37 36 36 37 36 36 36 36 36 36 36 35 35
23 23 23 24 24 24 23 23 23 23 23 23 24 25 25 27 28 30 31 32 33 34 36 36 36 36 37 37 37 37 37 37 37 37 37 36 36 36
23 23 24 24 23 23 23 24 24 24 24 24 25 26 26 27 28 30 31 32 33 34 36 37 37 37 37 37 38 39 38 38 38 39 39 38 38 37
23 23 22 23 23 23 22 23 23 24 24 25 25 26 27 28 28 29 30 31 32 33 34 36 37 38 38 38 39 39 39 39 39 40 40 40 40 39
23 23 22 22 22 22 22 22 22 23 23 24 24 25 26 27 28 28 29 30 31 32 34 34 35 37 38 38 39 40 41 41 42 42 42 42 42 42
20 21 21 21 21 21 21 21 21 22 22 23 23 24 25 26 27 27 27 29 30 32 32 33 34 35 36 37 38 39 40 41 42 43 43 43 44 44
15 16 17 18 18 19 20 20 20 21 22 22 23 24 25 26 27 28 28 29 30 31 32 33 34 35 36 37 38 39 41 42 44 45 46 46 46 46
9 10 12 14 15 16 18 19 20 20 21 22 23 24 25 26 27 28 30 30 31 32 33 34 35 36 37 38 39 40 42 44 44 45 47 47 47 47
3 4 6 9 11 12 14 16 17 19 20 21 23 24 26 27 28 29 30 31 32 33 34 35 36 36 38 39 40 41 42 43 43 44 45 45 46 47
2 2 3 5 7 9 11 13 15 17 19 20 22 23 25 26 28 29 31 32 33 34 35 36 38 38 39 39 39 40 42 42 42 42 43 44 45 45
5 4 4 4 5 6 8 10 12 14 15 17 19 22 23 25 27 29 30 32 33 34 35 36 37 38 39 39 40 40 41 41 42 43 43 43 44 44
8 7 6 5 5 6 7 8 10 11 13 15 18 20 22 24 26 27 29 30 32 33 34 35 36 37 38 39 39 40 41 41 42 42 42 43 43 43
Wind_Direction
245 243 242 243 242 238 234 230 226 225 225 226 227 228 227 228 229 228 227 226 226 227 228 230 231 233 234 236 238 240 242 243 245 246 248 249 251 251
249 247 244 241 241 240 235 231 228 226 227 227 229 230 230 231 233 233 232 231 230 230 230 232 233 235 237 239 241 243 244 245 246 247 248 250 251 252
251 249 248 247 245 242 237 233 230 228 227 227 228 229 231 233 235 235 236 236 236 235 234 235 236 237 239 241 243 244 246 246 247 249 250 252 252 253
253 253 253 251 245 243 240 234 231 229 228 229 228 229 231 234 237 238 237 238 238 238 238 238 239 239 240 241 242 244 245 246 247 249 251 253 254 255
255 255 254 252 246 245 244 236 233 231 231 232 229 230 232 236 238 239 240 241 240 240 240 240 240 240 241 241 242 243 245 247 248 251 254 255 255 255
256 256 256 254 249 247 247 244 238 235 235 234 229 230 233 236 237 239 242 243 243 243 243 243 243 243 243 242 243 244 246 249 251 254 256 257 257 257
256 256 256 253 249 246 248 249 245 241 239 233 231 232 233 235 237 239 241 243 244 245 245 245 245 246 246 246 246 247 248 250 253 255 257 258 258 259
254 254 254 254 252 250 249 250 249 245 242 237 236 236 237 236 236 239 241 243 244 246 248 249 249 250 250 250 250 250 252 253 254 256 257 257 258 259
253 252 252 252 252 251 249 248 248 245 242 240 239 239 237 236 238 240 241 243 244 247 250 251 250 250 251 252 253 253 254 255 255 255 256 257 258 259
253 252 252 252 251 251 250 249 248 246 244 243 242 241 240 240 241 241 243 243 245 247 249 250 251 252 254 255 255 256 256 256 256 256 257 257 258 258
253 253 253 253 253 252 251 250 249 247 246 245 243 243 244 244 243 243 244 244 244 245 248 249 251 253 256 257 257 256 256 257 256 256 257 257 257 257
254 253 252 253 253 253 253 253 252 251 249 247 245 244 244 243 241 241 243 245 245 246 247 249 251 254 256 257 257 257 256 256 256 256 256 256 256 257
254 252 251 252 252 252 252 252 253 252 251 249 247 247 245 244 243 243 245 247 247 248 249 250 252 254 254 255 256 256 256 256 256 255 255 255 256 257
254 253 252 252 252 252 252 252 251 252 252 251 250 249 248 248 247 247 248 249 250 250 251 252 252 253 254 253 255 256 257 257 257 256 255 256 256 257
253 253 253 251 251 252 252 251 250 250 251 251 250 250 249 249 249 250 250 251 252 252 252 253 253 254 254 254 255 256 257 257 257 257 257 257 257 257
251 251 249 249 250 251 251 251 251 251 251 251 251 251 250 251 252 254 256 255 254 255 256 255 255 254 255 255 255 255 255 256 257 257 257 258 258 258
251 249 249 249 250 250 252 252 252 253 253 252 252 253 253 253 255 256 256 256 257 257 257 256 257 257 256 255 254 254 253 254 256 257 257 258 259 259
251 250 248 248 249 250 251 252 253 255 256 255 256 257 257 258 258 258 259 260 260 260 260 259 259 258 258 257 256 255 254 255 256 256 258 260 260 260
252 250 248 248 250 251 251 253 256 258 259 259 260 261 262 263 264 264 265 264 264 263 263 262 262 261 260 260 260 259 258 258 259 258 259 260 260 260
255 256 254 254 254 255 257 260 261 261 262 263 263 264 266 267 268 269 268 268 267 267 267 266 266 265 264 263 263 263 263 262 262 262 261 260 260 260
29 326 284 273 269 269 268 269 269 269 269 269 269 270 271 271 272 272 272 271 270 270 269 269 268 268 268 267 266 266 266 265 265 265 264 263 262 261
35 20 357 326 305 296 289 285 282 280 278 278 278 278 278 278 278 277 276 275 274 273 272 272 271 270 269 269 268 268 267 267 266 265 265 265 264 263
41 35 25 9 350 333 319 310 304 299 294 291 288 287 286 285 284 283 281 279 278 276 275 274 273 272 271 270 269 269 269 268 268 267 266 266 265 263
Height
5797 5799 5801 5802 5804 5806 5809 5812 5815 5818 5821 5824 5826 5828 5830 5831 5833 5834 5836 5838 5840 5841 5843 5845 5847 5849 5851 5852 5854 5856 5857 5859 5860 5861 5863 5864 5866 5867
5791 5793 5794 5796 5798 5800 5803 5806 5809 5812 5815 5819 5821 5823 5825 5827 5829 5831 5832 5834 5836 5837 5839 5841 5842 5844 5846 5848 5849 5851 5852 5854 5855 5856 5858 5859 5860 5861
5787 5788 5789 5790 5792 5793 5796 5799 5802 5806 5809 5812 5815 5818 5820 5822 5824 5826 5828 5830 5831 5833 5835 5836 5838 5840 5841 5843 5844 5846 5847 5849 5850 5851 5852 5853 5854 5855
5782 5783 5784 5785 5786 5787 5789 5792 5795 5798 5802 5805 5808 5812 5814 5817 5819 5821 5823 5825 5827 5828 5830 5832 5833 5835 5836 5838 5839 5840 5842 5843 5844 5845 5847 5848 5849 5850
5777 5778 5779 5779 5780 5782 5783 5785 5788 5791 5795 5798 5801 5805 5808 5811 5813 5815 5817 5819 5821 5823 5825 5826 5828 5829 5831 5832 5833 5835 5836 5837 5838 5839 5840 5841 5842 5843
5772 5773 5774 5775 5775 5777 5778 5779 5782 5784 5787 5790 5794 5797 5801 5804 5807 5809 5811 5813 5816 5818 5819 5820 5822 5823 5825 5826 5828 5829 5830 5831 5832 5833 5834 5835 5836 5837
5767 5767 5768 5769 5770 5772 5773 5774 5775 5777 5780 5783 5786 5789 5793 5796 5799 5802 5804 5806 5809 5810 5812 5814 5816 5817 5819 5820 5821 5822 5824 5825 5826 5827 5827 5828 5829 5830
5761 5762 5763 5764 5765 5766 5767 5769 5770 5772 5773 5776 5778 5781 5785 5788 5791 5794 5796 5800 5802 5802 5804 5807 5809 5810 5811 5813 5814 5815 5817 5818 5819 5820 5820 5821 5822 5823
5755 5756 5757 5758 5759 5760 5761 5763 5764 5765 5767 5769 5771 5774 5776 5780 5783 5786 5789 5791 5793 5795 5797 5799 5800 5802 5803 5805 5807 5808 5809 5810 5811 5812 5813 5814 5814 5815
5748 5749 5750 5751 5753 5754 5755 5756 5758 5759 5761 5763 5765 5767 5769 5771 5774 5777 5780 5783 5785 5787 5789 5790 5791 5793 5795 5797 5798 5799 5801 5802 5803 5804 5805 5805 5806 5807
5742 5743 5744 5745 5746 5747 5749 5750 5751 5753 5754 5756 5758 5760 5761 5763 5766 5768 5771 5774 5776 5778 5780 5782 5783 5784 5786 5788 5789 5790 5791 5793 5794 5795 5796 5797 5797 5798
5735 5737 5738 5738 5740 5741 5742 5743 5745 5746 5748 5749 5751 5752 5754 5756 5758 5760 5762 5764 5767 5769 5771 5773 5774 5775 5777 5778 5779 5780 5781 5783 5784 5785 5786 5787 5788 5789
5729 5730 5731 5732 5733 5735 5736 5737 5738 5740 5741 5743 5744 5746 5747 5749 5750 5752 5754 5756 5758 5760 5761 5763 5765 5766 5767 5768 5768 5769 5771 5772 5773 5775 5776 5777 5778 5779
5721 5723 5724 5725 5727 5728 5729 5731 5732 5733 5735 5736 5737 5739 5740 5741 5743 5744 5746 5747 5749 5750 5751 5753 5755 5756 5757 5758 5758 5759 5760 5761 5763 5764 5765 5766 5768 5769
5714 5715 5717 5719 5720 5722 5723 5724 5725 5727 5728 5729 5730 5732 5733 5734 5735 5736 5738 5739 5740 5740 5742 5743 5744 5745 5746 5747 5748 5748 5749 5750 5751 5753 5754 5755 5757 5758
5706 5708 5710 5712 5714 5715 5717 5718 5719 5720 5721 5722 5723 5724 5726 5727 5728 5728 5729 5730 5731 5732 5732 5733 5734 5735 5735 5736 5737 5738 5738 5739 5740 5741 5742 5744 5745 5746
5700 5702 5704 5706 5708 5709 5711 5712 5713 5714 5715 5716 5717 5718 5719 5719 5720 5721 5721 5721 5722 5722 5723 5723 5724 5724 5724 5725 5726 5727 5727 5727 5728 5729 5730 5732 5733 5734
5695 5696 5698 5700 5702 5703 5705 5706 5707 5708 5709 5710 5711 5711 5712 5712 5713 5713 5713 5713 5713 5713 5713 5714 5714 5714 5714 5714 5715 5715 5716 5716 5716 5717 5717 5719 5720 5721
5692 5693 5694 5696 5697 5698 5699 5701 5702 5703 5703 5704 5704 5705 5705 5705 5705 5705 5705 5705 5705 5704 5704 5704 5704 5704 5704 5704 5703 5704 5704 5704 5704 5705 5705 5706 5707 5708
5691 5692 5692 5693 5694 5695 5695 5696 5697 5697 5698 5698 5698 5698 5698 5698 5698 5697 5697 5696 5696 5695 5694 5694 5693 5693 5693 5693 5692 5692 5691 5691 5692 5692 5693 5693 5694 5695
5692 5692 5692 5692 5692 5692 5693 5693 5693 5693 5693 5693 5692 5692 5691 5691 5690 5689 5688 5687 5686 5685 5684 5683 5682 5681 5681 5681 5681 5680 5679 5679 5679 5679 5680 5680 5681 5682
5693 5692 5692 5692 5691 5691 5691 5690 5690 5689 5688 5687 5687 5686 5684 5683 5682 5680 5679 5677 5676 5674 5673 5672 5670 5670 5669 5669 5668 5667 5667 5667 5666 5666 5667 5668 5668 5669
5695 5694 5693 5692 5692 5691 5690 5688 5687 5686 5685 5683 5682 5680 5678 5676 5673 5671 5669 5667 5665 5663 5661 5660 5659 5658 5657 5656 5655 5655 5654 5654 5653 5653 5654 5654 5654 5655